Date String (YYYY-MM-DD hh:mm:ss) UTC,Instrument flags,Ambient pressure (hPa),Sample flow (lpm),Bypass flow (lpm),Sample temperature (°C),Ambient temperature (°C),ASC tube jacket temperature (°C),LED temperature (°C),Box temperature (°C),Sample RH (%),Span deviation,Mass concentration (μg/m³),Mass concentration (μg/m³),Mass concentration (μg/m³)
DateTimeUTC,F1_M11,P_M11,Q1_M11,Q2_M11,T1_M11,T2_M11,T3_M11,T4_M11,T5_M11,U1_M11,ZSPAN_M11,X0_M11,X2_M11,X1_M11
2022-11-04 08:00:00,,0822.6,4.99,0.00,22.7,22.0,00.0,31.4,24.7,16.0,0000.0,0008.41,0006.53,0006.37
2022-11-04 08:01:00,,0822.6,5.00,0.00,22.8,22.3,00.0,31.4,24.8,15.8,0000.0,0008.21,0006.31,0006.16
2022-11-04 08:02:00,,0822.6,4.99,0.00,22.8,22.0,00.0,31.5,24.8,15.7,0000.0,0007.88,0006.09,0005.97
2022-11-04 08:03:00,,0822.6,5.02,0.00,22.8,21.7,00.0,31.5,24.7,15.7,0000.0,0007.67,0005.87,0005.77
2022-11-04 08:04:00,,0822.6,5.00,0.00,22.7,21.5,00.0,31.5,24.7,15.6,0000.0,0007.99,0005.65,0005.55
2022-11-04 08:05:00,,0822.7,4.99,0.00,22.7,21.4,00.0,31.5,24.7,15.6,0000.0,0007.83,0005.43,0005.33
2022-11-04 08:06:00,,0822.6,4.99,0.00,22.7,21.4,00.0,31.5,24.6,15.5,0000.0,0007.63,0005.19,0005.08
2022-11-04 08:07:00,,0822.6,5.00,0.00,22.7,21.3,00.0,31.5,24.6,15.5,0000.0,0007.47,0004.95,0004.85
2022-11-04 08:08:00,,0822.6,5.01,0.00,22.7,21.3,00.0,31.5,24.6,15.5,0000.0,0007.18,0004.70,0004.61
2022-11-04 08:09:00,,0822.6,5.00,0.00,22.7,21.3,00.0,31.5,24.6,15.4,0000.0,0006.98,0004.55,0004.47
2022-11-04 08:10:00,,0822.6,5.00,0.00,22.7,21.3,00.0,31.5,24.6,15.4,0000.0,0006.95,0004.48,0004.39
2022-11-04 08:11:00,,0822.6,4.97,0.00,22.7,21.3,00.0,31.5,24.6,15.4,0000.0,0006.94,0004.44,0004.34
2022-11-04 08:12:00,,0822.5,5.02,0.00,22.7,21.3,00.0,31.5,24.6,15.3,0000.0,0006.92,0004.40,0004.30
2022-11-04 08:13:00,,0822.5,5.00,0.00,22.7,21.3,00.0,31.5,24.6,15.3,0000.0,0006.92,0004.37,0004.27
2022-11-04 08:14:00,,0822.4,4.99,0.00,22.7,21.3,00.0,31.4,24.6,15.3,0000.0,0006.93,0004.35,0004.24
2022-11-04 08:15:00,,0822.4,4.99,0.00,22.7,21.3,00.0,31.4,24.6,15.3,0000.0,0005.94,0004.32,0004.20
2022-11-04 08:16:00,,0822.4,5.00,0.00,22.7,21.3,00.0,31.4,24.6,15.3,0000.0,0005.66,0004.28,0004.17
2022-11-04 08:17:00,,0822.4,5.00,0.00,22.7,21.3,00.0,31.4,24.6,15.3,0000.0,0005.53,0004.24,0004.15
2022-11-04 08:18:00,,0822.5,5.00,0.00,22.7,21.3,00.0,31.4,24.6,15.3,0000.0,0005.48,0004.22,0004.13
2022-11-04 08:19:00,,0822.5,5.00,0.00,22.7,21.3,00.0,31.4,24.6,15.3,0000.0,0005.51,0004.22,0004.12
2022-11-04 08:20:00,,0822.5,4.99,0.00,22.7,21.3,00.0,31.4,24.6,15.3,0000.0,0005.51,0004.22,0004.11
2022-11-04 08:21:00,,0822.5,5.00,0.00,22.7,21.3,00.0,31.4,24.6,15.3,0000.0,0005.54,0004.26,0004.16
2022-11-04 08:22:00,,0822.5,5.00,0.00,22.7,21.6,00.0,31.4,24.7,15.2,0000.0,0005.59,0004.30,0004.19
2022-11-04 08:23:00,,0822.5,5.01,0.00,22.8,22.3,00.0,31.4,24.9,15.1,0000.0,0005.77,0004.38,0004.27
2022-11-04 08:24:00,,0822.6,4.99,0.00,22.9,22.7,00.0,31.5,25.0,15.1,0000.0,0005.99,0004.49,0004.36
2022-11-04 08:25:00,,0822.6,5.00,0.00,22.9,22.4,00.0,31.5,24.9,15.0,0000.0,0006.03,0004.55,0004.43
2022-11-04 08:26:00,,0822.6,5.01,0.00,22.9,22.2,00.0,31.5,24.9,15.0,0000.0,0006.17,0004.59,0004.48
2022-11-04 08:27:00,,0822.6,4.99,0.00,22.9,22.1,00.0,31.5,24.9,15.0,0000.0,0006.36,0004.63,0004.52
2022-11-04 08:28:00,,0822.6,5.00,0.00,22.9,21.9,00.0,31.6,24.9,15.0,0000.0,0006.48,0004.69,0004.57
2022-11-04 08:29:00,,0822.5,5.01,0.00,22.9,21.9,00.0,31.6,24.9,15.0,0000.0,0006.66,0004.76,0004.63
2022-11-04 08:30:00,,0822.5,4.99,0.00,22.9,21.8,00.0,31.6,24.9,15.0,0000.0,0006.69,0004.79,0004.66
2022-11-04 08:31:00,,0822.5,5.00,0.00,22.9,21.8,00.0,31.6,24.8,14.9,0000.0,0006.72,0004.80,0004.67
2022-11-04 08:32:00,,0822.4,5.01,0.00,22.9,21.7,00.0,31.6,24.8,15.0,0000.0,0006.70,0004.78,0004.65
2022-11-04 08:33:00,,0822.5,5.01,0.00,22.9,21.7,00.0,31.6,24.8,14.9,0000.0,0006.66,0004.73,0004.60
2022-11-04 08:34:00,,0822.4,4.98,0.00,22.9,21.7,00.0,31.7,24.8,14.9,0000.0,0006.44,0004.65,0004.53
2022-11-04 08:35:00,,0822.4,5.01,0.00,22.9,21.7,00.0,31.7,24.8,14.9,0000.0,0006.16,0004.54,0004.44
2022-11-04 08:36:00,,0822.4,5.01,0.00,22.9,21.6,00.0,31.7,24.8,14.9,0000.0,0006.07,0004.48,0004.37
2022-11-04 08:37:00,,0822.4,4.99,0.00,22.9,21.6,00.0,31.7,24.8,14.9,0000.0,0005.93,0004.43,0004.32
2022-11-04 08:38:00,,0822.4,5.00,0.00,22.9,21.6,00.0,31.7,24.8,14.9,0000.0,0005.81,0004.42,0004.30
2022-11-04 08:39:00,,0822.4,5.01,0.00,22.9,21.6,00.0,31.7,24.8,14.9,0000.0,0005.72,0004.37,0004.25
2022-11-04 08:40:00,,0822.4,5.00,0.00,22.9,21.6,00.0,31.7,24.8,14.9,0000.0,0005.61,0004.30,0004.19
2022-11-04 08:41:00,,0822.4,4.99,0.00,22.9,21.6,00.0,31.7,24.8,14.9,0000.0,0005.58,0004.27,0004.15
2022-11-04 08:42:00,,0822.4,5.01,0.00,22.9,21.5,00.0,31.7,24.8,14.9,0000.0,0005.52,0004.24,0004.13
2022-11-04 08:43:00,,0822.3,5.01,0.00,22.9,21.6,00.0,31.7,24.8,14.9,0000.0,0005.56,0004.22,0004.11
2022-11-04 08:44:00,,0822.3,5.00,0.00,22.9,21.5,00.0,31.7,24.8,14.9,0000.0,0005.50,0004.21,0004.10
2022-11-04 08:45:00,,0822.2,4.98,0.00,22.9,21.5,00.0,31.7,24.7,14.9,0000.0,0005.65,0004.22,0004.10
2022-11-04 08:46:00,,0822.2,5.00,0.00,22.9,21.5,00.0,31.7,24.8,14.9,0000.0,0005.69,0004.24,0004.11
2022-11-04 08:47:00,,0822.1,5.01,0.00,22.8,21.5,00.0,31.6,24.8,14.9,0000.0,0005.73,0004.26,0004.12
2022-11-04 08:48:00,,0822.1,5.00,0.00,22.8,21.5,00.0,31.7,24.7,14.9,0000.0,0005.70,0004.26,0004.13
2022-11-04 08:49:00,,0822.0,4.99,0.00,22.8,21.5,00.0,31.6,24.7,14.9,0000.0,0005.67,0004.24,0004.12
2022-11-04 08:50:00,,0822.0,5.01,0.00,22.8,21.5,00.0,31.6,24.7,14.9,0000.0,0006.08,0004.24,0004.12
2022-11-04 08:51:00,,0822.1,5.00,0.00,22.8,21.4,00.0,31.6,24.7,14.9,0000.0,0006.10,0004.24,0004.12
2022-11-04 08:52:00,,0822.1,5.01,0.00,22.8,21.4,00.0,31.6,24.7,14.9,0000.0,0006.16,0004.25,0004.12
2022-11-04 08:53:00,,0822.1,4.98,0.00,22.8,21.4,00.0,31.6,24.7,15.0,0000.0,0006.12,0004.24,0004.12
2022-11-04 08:54:00,,0822.1,5.01,0.00,22.8,21.4,00.0,31.7,24.7,14.9,0000.0,0005.99,0004.23,0004.12
2022-11-04 08:55:00,,0822.1,5.01,0.00,22.8,21.4,00.0,31.7,24.6,14.9,0000.0,0005.97,0004.23,0004.11
2022-11-04 08:56:00,,0822.2,5.01,0.00,22.8,21.4,00.0,31.7,24.6,14.9,0000.0,0005.83,0004.20,0004.10
2022-11-04 08:57:00,,0822.2,4.99,0.00,22.8,21.4,00.0,31.6,24.6,14.9,0000.0,0005.78,0004.16,0004.06
2022-11-04 08:58:00,,0822.1,4.99,0.00,22.8,21.4,00.0,31.6,24.7,14.9,0000.0,0005.72,0004.13,0004.03
2022-11-04 08:59:00,,0822.2,5.00,0.00,22.8,21.4,00.0,31.6,24.7,14.9,0000.0,0005.65,0004.08,0003.99
